Regional Weather Roundup
Issued by NWS

Home | Current Version | Previous Version | Text Only | Print | Product List | Glossary On
Versions: 1 2 3 4 5 6 7 8 9 10 11 12 13 14 15 16 17 18 19 20 21 22 23 24 25 26 27 28 29 30 31 32 33 34 35 36 37 38 39 40 41 42 43 44 45 46 47 48 49 50
000
ASUS43 KLMK 230610
RWRKY
KENTUCKY REGIONAL WEATHER ROUNDUP
NATIONAL WEATHER SERVICE LOUISVILLE KY
200 AM EDT WED AUG 23 2017

NOTE "FAIR" INDICATES FEW OR NO CLOUDS BELOW 12,000 FEET
WITH NO SIGNIFICANT WEATHER AND/OR OBSTRUCTIONS TO VISIBILITY.

KYZ001>023-026-027-061>063-070>075-230700-
WESTERN AND SOUTH CENTRAL KENTUCKY

CITY           SKY/WX    TMP DP  RH WIND       PRES   REMARKS
PADUCAH        CLEAR     68  65  90 W3        30.02S
HENDERSON      NOT AVBL
OWENSBORO      CLEAR     69  66  90 NW3       30.02R
HOPKINSVILLE   CLEAR     70  70 100 CALM      30.01S
BOWLING GREEN  CLOUDY    73  72  96 W5        30.00R
GLASGOW        CLOUDY   N/A N/A N/A W3        30.00R HAZE
$$

KYZ024-025-028>034-038-045-046-053-230700-
NORTH CENTRAL KENTUCKY

CITY           SKY/WX    TMP DP  RH WIND       PRES   REMARKS
LOUISVILLE/SDF CLOUDY    72  65  78 N13       29.98R
LOUISVILLE/LOU PTCLDY    71  70  96 NW3       29.99R
FORT KNOX      PTCLDY    69  69 100 NW7       29.98S
$$

KYZ035>037-039>044-047>052-055>060-089>105-230700-
NORTHEAST KENTUCKY

CITY           SKY/WX    TMP DP  RH WIND       PRES   REMARKS
LEXINGTON      CLOUDY    71  68  90 W3        29.98F
COVINGTON      CLOUDY    70  66  87 NW7       29.98R
FRANKFORT      CLOUDY    71  69  93 W5        29.97S FOG
$$

KYZ054-064>069-076>088-106>120-230700-
SOUTHEAST KENTUCKY

CITY           SKY/WX    TMP DP  RH WIND       PRES   REMARKS
JACKSON        CLOUDY    70  69  97 CALM      29.98F FOG
LONDON         CLOUDY    70  68  93 SW3       29.99F
SOMERSET       CLOUDY    70  70 100 CALM      30.00F
MIDDLESBORO    TSTM      71  71 100 E3        30.00F
MONTICELLO     CLOUDY    72  71  97 N13       30.00F
$$




USA.gov is the U.S. government's official web portal to all federal, state and local government web resources and services.